Location: Peterborough
(44.3091°N, 78.3197°W)
Time: 15:55:57
(UTC-04:00)

Explorer 7 - Pass Details

Date: 31 March 2023
Orbit: 477 x 653 km, 50.3° (Epoch: 04 June)

Event Time Altitude Azimuth Distance (km) Brightness Sun altitude
Rises 19:48:22 0° 294° (WNW) 2,857 12.3 -2.5°
Reaches altitude 10° 19:50:47 10° 300° (WNW) 1,921 11.0 -2.9°
Maximum altitude 19:55:02 48° 16° (NNE) 740 7.5 -3.6°
Drops below altitude 10° 19:59:02 10° 92° (E) 1,803 8.8 -4.3°
Enters shadow 19:59:59 - 95° (E) 2,163 9.2 -4.5°
Sets 20:01:15 0° 98° (E) 2,662 - -4.7°
